FW3102 Weather Reports


Display with metric or nautical units.
time (UTC)temp
F
wind
direction
speed
MPH
gust
MPH
rain 1hr
in
rain 24hr
in
rain mn
in
humidity
%
barometer
mb
20260901063036 55 119 0.0 0.0 0.00 0.00 0.00 78 1006.2
20260901061530 56 120 0.0 0.0 0.00 0.00 0.00 78 1006.3
20260901060028 56 119 0.0 0.0 0.00 0.00 0.00 77 1006.3
20260901054528 56 66 0.0 0.0 0.00 0.00 0.00 76 1006.2
20260901053027 56 63 0.0 0.0 0.00 0.00 0.00 75 1006.2
20260901051525 57 63 0.0 0.0 0.00 0.00 0.00 74 1006.1
20260901050025 57 63 0.0 0.0 0.00 0.00 0.00 73 1006.1
20260901044525 58 63 0.0 0.0 0.00 0.00 0.00 71 1006.3
20260901043025 59 63 0.0 0.0 0.00 0.00 0.00 70 1006.3
20260901041524 59 63 0.0 0.0 0.00 0.00 0.00 69 1006.4
20260901040027 59 63 0.0 0.0 0.00 0.00 0.00 67 1006.3
20260901034524 60 63 0.0 0.0 0.00 0.00 0.00 66 1006.2
20260901033036 61 63 0.0 0.0 0.00 0.00 0.00 64 1006.1
20260901031524 62 63 0.0 0.0 0.00 0.00 0.00 63 1006.0
20260901030025 62 63 0.0 0.0 0.00 0.00 0.00 62 1005.9
20260901024526 63 63 0.0 0.0 0.00 0.00 0.00 62 1005.9
20260901023020 64 63 0.0 0.0 0.00 0.00 0.00 59 1005.8
20260901021521 66 63 0.0 0.0 0.00 0.00 0.00 57 1005.9
20260901020020 67 63 0.0 0.0 0.00 0.00 0.00 54 1005.8
20260901014519 68 63 0.0 0.0 0.00 0.00 0.00 53 1005.6
20260901013019 69 63 0.0 0.0 0.00 0.00 0.00 51 1005.6
20260901011518 69 63 0.0 0.0 0.00 0.00 0.00 51 1005.6
20260901010018 70 63 0.0 0.0 0.00 0.00 0.00 52 1005.6
20260901004517 70 63 0.0 0.0 0.00 0.00 0.00 50 1005.7
20260901003017 70 69 0.0 0.0 0.00 0.00 0.00 52 1005.9
20260901001523 71 70 0.0 0.0 0.00 0.00 0.00 50 1005.9
20260901000015 72 70 0.0 0.0 0.00 0.00 0.00 49 1006.1
20260831234528 72 60 0.0 0.0 0.00 0.00 0.00 50 1006.2
20260831233014 72 77 0.0 0.0 0.00 0.00 0.00 49 1006.2
20260831231513 72 75 0.0 1.0 0.00 0.00 0.00 48 1006.2
20260831230010 72 59 0.0 2.0 0.00 0.00 0.00 48 1006.3
20260831224508 72 77 0.0 2.0 0.00 0.00 0.00 48 1006.2
20260831223005 72 68 0.0 3.0 0.00 0.00 0.00 48 1006.2
20260831221514 72 64 0.0 2.0 0.00 0.00 0.00 48 1006.2
20260831220010 72 59 0.0 3.0 0.00 0.00 0.00 48 1006.3
20260831214602 71 56 0.0 2.0 0.00 0.00 0.00 50 1006.5
20260831213104 71 70 0.0 3.0 0.00 0.00 0.00 49 1006.4
20260831211554 71 66 1.0 4.0 0.00 0.00 0.00 48 1006.5
20260831210054 72 60 1.0 5.0 0.00 0.00 0.00 47 1006.6
20260831204558 73 64 0.0 3.0 0.00 0.00 0.00 48 1006.7
20260831203104 72 13 0.0 4.0 0.00 0.00 0.00 46 1006.6
20260831201548 72 74 0.0 2.0 0.00 0.00 0.00 50 1006.6
20260831200053 72 65 1.0 4.0 0.00 0.00 0.00 49 1006.7
20260831194546 71 67 0.0 2.0 0.00 0.00 0.00 52 1006.8
20260831193049 72 81 0.0 3.0 0.00 0.00 0.00 49 1006.9
20260831191547 71 49 1.0 4.0 0.00 0.00 0.00 48 1006.9
20260831190055 72 17 0.0 4.0 0.00 0.00 0.00 48 1007.0
20260831184540 70 3 0.0 3.0 0.00 0.00 0.00 53 1006.9
20260831183039 70 7 0.0 4.0 0.00 0.00 0.00 51 1007.1
20260831181549 69 302 0.0 2.0 0.00 0.00 0.00 53 1007.2
20260831180034 68 235 0.0 3.0 0.00 0.00 0.00 55 1007.3
20260831174530 67 325 0.0 5.0 0.00 0.00 0.00 57 1007.4
20260831173030 67 55 1.0 3.0 0.00 0.00 0.00 57 1007.4
20260831171525 66 55 0.0 2.0 0.00 0.00 0.00 61 1007.4
20260831170033 66 24 0.0 4.0 0.00 0.00 0.00 61 1007.3
20260831164524 66 56 0.0 2.0 0.00 0.00 0.00 62 1007.3
20260831163025 66 310 0.0 3.0 0.00 0.00 0.00 61 1007.4
20260831161521 66 11 0.0 1.0 0.00 0.00 0.00 63 1007.4
20260831160035 65 354 0.0 1.0 0.00 0.00 0.00 66 1007.3
20260831154514 63 352 0.0 2.0 0.00 0.00 0.00 70 1007.3
20260831153029 61 119 0.0 2.0 0.00 0.00 0.00 73 1007.4
20260831151506 58 67 0.0 1.0 0.00 0.00 0.00 77 1007.4
20260831150005 57 63 0.0 1.0 0.00 0.00 0.00 80 1007.3
20260831144504 55 72 0.0 2.0 0.00 0.00 0.00 83 1007.2
20260831143003 54 113 0.0 0.0 0.00 0.00 0.00 85 1007.1
20260831141504 54 175 0.0 1.0 0.00 0.00 0.00 85 1006.8
20260831140100 53 100 0.0 1.0 0.00 0.00 0.00 87 1006.8
20260831134606 52 77 0.0 1.0 0.00 0.00 0.00 88 1006.6
20260831133100 52 77 0.0 0.0 0.00 0.00 0.00 89 1006.5
20260831131604 51 77 0.0 0.0 0.00 0.00 0.00 90 1006.5
20260831130112 51 77 0.0 0.0 0.00 0.00 0.00 89 1006.7
20260831124600 52 77 0.0 0.0 0.00 0.00 0.00 89 1006.7
20260831123056 52 77 0.0 0.0 0.00 0.00 0.00 89 1006.6
20260831121553 52 77 0.0 0.0 0.00 0.00 0.00 88 1006.5
20260831120140 52 77 0.0 0.0 0.00 0.00 0.00 87 1006.3
20260831114548 53 77 0.0 0.0 0.00 0.00 0.00 87 1006.3
20260831113049 53 77 0.0 0.0 0.00 0.00 0.00 87 1006.1
20260831111551 53 77 0.0 0.0 0.00 0.00 0.00 86 1006.1
20260831110041 54 77 0.0 0.0 0.00 0.00 0.00 86 1006.0
20260831104540 54 66 0.0 0.0 0.00 0.00 0.00 85 1005.7
20260831103044 55 65 0.0 0.0 0.00 0.00 0.00 84 1005.7
20260831101535 55 65 0.0 0.0 0.00 0.00 0.00 83 1005.7
20260831100036 55 65 0.0 0.0 0.00 0.00 0.00 82 1005.5
20260831094527 56 65 0.0 0.0 0.00 0.00 0.00 80 1005.4
20260831093025 57 65 0.0 1.0 0.00 0.00 0.00 79 1005.1
20260831091526 57 65 0.0 2.0 0.00 0.00 0.00 79 1005.2
20260831090021 58 63 0.0 1.0 0.00 0.00 0.00 78 1005.1
20260831084519 58 63 0.0 0.0 0.00 0.00 0.00 78 1005.1
20260831083017 58 65 0.0 1.0 0.00 0.00 0.00 78 1004.9
20260831081532 58 63 0.0 1.0 0.00 0.00 0.00 78 1005.0
20260831080013 58 65 0.0 1.0 0.00 0.00 0.00 79 1004.9
20260831074512 57 65 0.0 2.0 0.00 0.00 0.00 82 1004.8
20260831073007 56 66 0.0 1.0 0.00 0.00 0.00 84 1004.6
20260831071502 56 65 0.0 0.0 0.00 0.00 0.00 84 1004.4
20260831070129 57 64 0.0 1.0 0.00 0.00 0.00 84 1004.3
20260831064558 57 77 0.0 1.0 0.00 0.00 0.00 83 1004.4